Preview of NWS' New Version of Forecast
This preview is not operational and should not be used for support decisions.

Regional Weather Roundup (RWR)

Issued by National Weather Service (NWS)

                            
000
ASUS44 KMEG 211100
RWRTN 
TENNESSEE HOURLY STATE WEATHER ROUNDUP
NATIONAL WEATHER SERVICE MEMPHIS TN
600 AM CDT SAT SEP 21 2019

TNZ002-004-019-021-049-052-054-088>092-211200-
WEST TENNESSEE
  
CITY           SKY/WX    TMP DP  RH WIND       PRES   REMARKS
MEMPHIS INTL   FAIR      72  60  66 S7        30.19R                  
NWS MEMPHIS      N/A     67 N/A N/A MISG        N/A                   
JACKSON        FAIR      61  59  93 S3        30.22R FOG              
DYERSBURG      FAIR      68  64  87 CALM      30.20R                  
$$

TNZ008-025-027-028-033-062-065-066-211200-
NORTH MIDDLE TENNESSEE
  
CITY           SKY/WX    TMP DP  RH WIND       PRES   REMARKS
NASHVILLE      FAIR      67  57  70 S6        30.27R                  
CLARKSVILLE    FAIR      65  60  84 SE3       30.23R                  
SMYRNA         FAIR      63  59  87 SE5       30.28R                  
CROSSVILLE     FAIR      58  55  90 CALM      30.35R                  
$$

TNZ061-075-076-078-094-096-097-211200-
SOUTH MIDDLE TENNESSEE
  
CITY           SKY/WX    TMP DP  RH WIND       PRES   REMARKS
$$

TNZ017-018-042-046-047-211200-
NORTHEAST TENNESSEE
  
CITY           SKY/WX    TMP DP  RH WIND       PRES   REMARKS
TRI CITIES     MOCLDY    58  57  97 CALM      30.34R                  
$$

TNZ012-013-036-069-073-074-211200-
CENTRAL EAST TENNESSEE
  
CITY           SKY/WX    TMP DP  RH WIND       PRES   REMARKS
KNOXVILLE      FAIR      65  59  81 CALM      30.31R                  
OAK RIDGE      FAIR      65  60  84 CALM      30.32R                  
$$

TNZ083-085-099-211200-
SOUTHEAST TENNESSEE
  
CITY           SKY/WX    TMP DP  RH WIND       PRES   REMARKS
CHATTANOOGA    FAIR      60  58  92 CALM      30.32R                  
$$

SKY/WX REPORTED AS FAIR MEANS FEW OR NO CLOUDS BELOW
12 THOUSAND FEET.